User: anonymous   Login
Location: *
(44.1392°N, 4.8079°E)
Time: 19:45:46
(UTC+00:00)
Language:

USA 307 - Orbit

View from above orbital plane
View from above orbital plane
View from above satellite
View from above satellite

Ground track
Ground track

The orbit data is extracted from the following two-line orbital elements,

1 45875U 20046C   21267.77927064 0.00003700  00000-0  30128-3 0    01
2 45875  53.9814 194.4618 0007426  14.4677 345.5322 14.99048564    06
Epoch (UTC): 24 September 2021 18:42:08
Eccentricity: 0.0007426
inclination: 53.9814°
perigee height: 564 km
apogee height: 575 km
right ascension of ascending node: 194.4618°
argument of perigee: 14.4677°
revolutions per day: 14.99048564
mean anomaly at epoch: 345.5322°
orbit number at epoch: 0

The dashed part of the orbit path shows where the satellite is in the earth's shadow,  

DLR